User: anonymous
Location: Caltech
(34.1382°N, 118.1253°W)
Time: 02:26:10
(UTC-07:00)
Language:

Oscar 11 - Orbit

View from above orbital plane
View from above orbital plane
View from above satellite
View from above satellite

Ground track
Ground track

The orbit data is extracted from the following two-line orbital elements,

1 14781U 84021B   14211.25379989  .00000382  00000-0  55169-4 0  5592
2 14781 097.8488 270.5349 0009402 049.5551 310.6481 14.81661395634348
Epoch (UTC): 30 July 2014 06:05:28
Eccentricity: 0.0009402
inclination: 97.8488°
perigee height: 617 km
apogee height: 630 km
right ascension of ascending node: 270.5349°
argument of perigee: 49.5551°
revolutions per day: 14.81661395
mean anomaly at epoch: 310.6481°
orbit number at epoch: 63434

The dashed part of the orbit path shows where the satellite is in the earth's shadow,  

DLR